Orbital Elements at Epoch 2459200.5 (2020-Dec-17.0) TDB
Reference: JPL 33 (heliocentric ecliptic J2000)
Element | Value | Uncertainty (1-sigma) | Units |
e | .03616039232169823 | 3.2955e-08 | |
a | 2.897994194437917 | 1.4323e-08 | au |
q | 2.793201587421038 | 9.5002e-08 | au |
i | 1.532733789244397 | 3.5993e-06 | deg |
node | 215.1393706017314 | 0.00013625 | deg |
peri | 74.93922433253881 | 0.00014573 | deg |
M | 205.1175081532283 | 5.2799e-05 | deg |
tp | 2459975.754900208601 (2023-Jan-31.25490021) | 0.00026498 | TDB |
period | 1801.958121588121 4.93 | 1.3359e-05 3.657e-08 | d yr |
n | .1997826673589511 | 1.4811e-09 | deg/d |
Q | 3.002786801454795 | 1.4841e-08 | au |
|
| | Orbit Determination Parameters
Additional Information
|